| time (UTC) | temp C | wind direction | speed KPH | gust KPH | rain 1hr cm | rain 24hr cm | rain mn cm | humidity % | barometer mb |
| 20260906083108 | 21 | 7 | 0.0 | 6.4 | 0.00 | 0.00 | 0.00 | 99 | 1015.6 |
| 20260906082608 | 21 | 8 | 0.0 | 3.2 | 0.00 | 0.00 | 0.00 | 99 | 1015.8 |
| 20260906082105 | 21 | 8 | 3.2 | 1.6 | 0.00 | 0.00 | 0.00 | 99 | 1015.8 |
| 20260906081607 | 21 | 8 | 3.2 | 3.2 | 0.00 | 0.00 | 0.00 | 99 | 1015.8 |
| 20260906081028 | 22 | 8 | 3.2 | 4.8 | 0.00 | 0.00 | 0.00 | 99 | 1015.9 |
| 20260906080522 | 22 | 8 | 3.2 | 8.0 | 0.00 | 0.00 | 0.00 | 99 | 1015.9 |
| 20260906080021 | 22 | 8 | 1.6 | 8.0 | 0.00 | 0.00 | 0.00 | 99 | 1015.9 |
| 20260906075520 | 22 | 359 | 1.6 | 6.4 | 0.00 | 0.00 | 0.00 | 99 | 1016.1 |
| 20260906075229 | 22 | 358 | 3.2 | 4.8 | 0.00 | 0.00 | 0.00 | 99 | 1016.1 |
| 20260906074509 | 22 | 358 | 3.2 | 6.4 | 0.00 | 0.00 | 0.00 | 99 | 1016.1 |
| 20260906074001 | 22 | 358 | 3.2 | 6.4 | 0.00 | 0.00 | 0.00 | 99 | 1016.1 |
| 20260906073501 | 22 | 44 | 3.2 | 6.4 | 0.00 | 0.00 | 0.00 | 99 | 1016.1 |
| 20260906072957 | 22 | 35 | 3.2 | 6.4 | 0.00 | 0.00 | 0.00 | 99 | 1016.1 |
| 20260906072457 | 22 | 11 | 3.2 | 4.8 | 0.00 | 0.00 | 0.00 | 99 | 1016.1 |
| 20260906071937 | 22 | 11 | 0.0 | 4.8 | 0.00 | 0.00 | 0.00 | 98 | 1016.1 |
| 20260906071418 | 22 | 11 | 0.0 | 3.2 | 0.00 | 0.00 | 0.00 | 98 | 1016.1 |
| 20260906071144 | 22 | 11 | 0.0 | 3.2 | 0.00 | 0.00 | 0.00 | 98 | 1016.2 |
| 20260906070415 | 22 | 11 | 0.0 | 3.2 | 0.00 | 0.00 | 0.00 | 98 | 1016.2 |
| 20260906065909 | 22 | 11 | 0.0 | 0.0 | 0.00 | 0.00 | 0.00 | 98 | 1016.2 |
| 20260906065355 | 22 | 11 | 0.0 | 0.0 | 0.00 | 0.00 | 0.00 | 98 | 1016.1 |
| 20260906064845 | 22 | 10 | 0.0 | 0.0 | 0.00 | 0.00 | 0.00 | 98 | 1016.1 |
| 20260906064334 | 22 | 11 | 0.0 | 3.2 | 0.00 | 0.00 | 0.00 | 98 | 1016.1 |
| 20260906063818 | 22 | 11 | 3.2 | 6.4 | 0.00 | 0.00 | 0.00 | 98 | 1016.3 |
| 20260906063309 | 22 | 11 | 3.2 | 6.4 | 0.00 | 0.00 | 0.00 | 98 | 1016.3 |
| 20260906063020 | 22 | 11 | 0.0 | 4.8 | 0.00 | 0.00 | 0.00 | 98 | 1016.3 |
| 20260906062521 | 22 | 11 | 0.0 | 3.2 | 0.00 | 0.00 | 0.00 | 97 | 1016.3 |
| 20260906061750 | 22 | 11 | 1.6 | 4.8 | 0.00 | 0.00 | 0.00 | 97 | 1016.3 |
| 20260906061239 | 22 | 11 | 1.6 | 4.8 | 0.00 | 0.00 | 0.00 | 97 | 1016.3 |
| 20260906060742 | 22 | 11 | 1.6 | 4.8 | 0.00 | 0.00 | 0.00 | 97 | 1016.5 |
| 20260906060231 | 22 | 11 | 1.6 | 4.8 | 0.00 | 0.00 | 0.00 | 97 | 1016.5 |
| 20260906055730 | 22 | 11 | 3.2 | 6.4 | 0.00 | 0.00 | 0.00 | 97 | 1016.5 |
| 20260906055217 | 22 | 11 | 3.2 | 6.4 | 0.00 | 0.00 | 0.00 | 98 | 1016.5 |
| 20260906054715 | 22 | 11 | 0.0 | 6.4 | 0.00 | 0.00 | 0.00 | 97 | 1016.5 |
| 20260906054214 | 22 | 12 | 0.0 | 3.2 | 0.00 | 0.00 | 0.00 | 97 | 1016.6 |
| 20260906053704 | 22 | 13 | 3.2 | 4.8 | 0.00 | 0.00 | 0.00 | 97 | 1016.6 |
| 20260906053151 | 22 | 12 | 3.2 | 6.4 | 0.00 | 0.00 | 0.00 | 97 | 1016.6 |
| 20260906052651 | 22 | 12 | 1.6 | 6.4 | 0.00 | 0.00 | 0.00 | 97 | 1016.6 |
| 20260906052149 | 22 | 12 | 1.6 | 3.2 | 0.00 | 0.00 | 0.00 | 96 | 1016.6 |
| 20260906051649 | 22 | 12 | 0.0 | 3.2 | 0.00 | 0.00 | 0.00 | 96 | 1016.6 |
| 20260906051148 | 23 | 12 | 0.0 | 0.0 | 0.00 | 0.00 | 0.00 | 96 | 1016.8 |
| 20260906050641 | 23 | 12 | 1.6 | 0.0 | 0.00 | 0.00 | 0.00 | 96 | 1016.8 |
| 20260906050352 | 23 | 12 | 1.6 | 6.4 | 0.00 | 0.00 | 0.00 | 96 | 1016.8 |
| 20260906045627 | 23 | 12 | 3.2 | 6.4 | 0.00 | 0.00 | 0.00 | 96 | 1016.9 |
| 20260906045122 | 23 | 13 | 3.2 | 6.4 | 0.00 | 0.00 | 0.00 | 96 | 1016.9 |
| 20260906044621 | 23 | 12 | 4.8 | 8.0 | 0.00 | 0.00 | 0.00 | 96 | 1016.9 |
| 20260906044121 | 23 | 5 | 4.8 | 8.0 | 0.00 | 0.00 | 0.00 | 96 | 1016.6 |
| 20260906043618 | 23 | 355 | 0.0 | 6.4 | 0.00 | 0.00 | 0.00 | 96 | 1016.6 |
| 20260906043119 | 23 | 18 | 1.6 | 4.8 | 0.00 | 0.00 | 0.00 | 96 | 1016.6 |
| 20260906042837 | 23 | 18 | 1.6 | 3.2 | 0.00 | 0.00 | 0.00 | 95 | 1016.4 |
| 20260906042053 | 23 | 18 | 4.8 | 6.4 | 0.00 | 0.00 | 0.00 | 95 | 1016.4 |
| 20260906041551 | 23 | 18 | 4.8 | 6.4 | 0.00 | 0.00 | 0.00 | 96 | 1016.4 |
| 20260906041044 | 23 | 8 | 3.2 | 6.4 | 0.00 | 0.00 | 0.00 | 96 | 1016.6 |
| 20260906040543 | 23 | 9 | 3.2 | 6.4 | 0.00 | 0.00 | 0.00 | 96 | 1016.6 |
| 20260906040041 | 23 | 3 | 3.2 | 6.4 | 0.00 | 0.00 | 0.00 | 95 | 1016.6 |
| 20260906035801 | 23 | 353 | 3.2 | 6.4 | 0.00 | 0.00 | 0.00 | 95 | 1016.5 |
| 20260906035041 | 23 | 353 | 3.2 | 6.4 | 0.00 | 0.00 | 0.00 | 95 | 1016.5 |
| 20260906034538 | 23 | 353 | 3.2 | 4.8 | 0.00 | 0.00 | 0.00 | 95 | 1016.5 |
| 20260906034039 | 23 | 67 | 0.0 | 4.8 | 0.00 | 0.00 | 0.00 | 94 | 1016.7 |
| 20260906033542 | 23 | 15 | 0.0 | 3.2 | 0.00 | 0.00 | 0.00 | 94 | 1016.7 |
| 20260906033035 | 23 | 11 | 0.0 | 3.2 | 0.00 | 0.00 | 0.00 | 93 | 1016.7 |
| 20260906032526 | 23 | 11 | 0.0 | 3.2 | 0.00 | 0.00 | 0.00 | 93 | 1017.0 |
| 20260906032025 | 23 | 11 | 1.6 | 4.8 | 0.00 | 0.00 | 0.00 | 93 | 1017.0 |
| 20260906031522 | 23 | 10 | 1.6 | 4.8 | 0.00 | 0.00 | 0.00 | 94 | 1017.0 |
| 20260906031024 | 23 | 10 | 0.0 | 4.8 | 0.00 | 0.00 | 0.00 | 93 | 1016.9 |
| 20260906030511 | 23 | 10 | 0.0 | 1.6 | 0.00 | 0.00 | 0.00 | 93 | 1016.9 |
| 20260906030011 | 23 | 11 | 0.0 | 1.6 | 0.00 | 0.00 | 0.00 | 92 | 1016.9 |
| 20260906025504 | 23 | 11 | 0.0 | 0.0 | 0.00 | 0.00 | 0.00 | 92 | 1016.8 |
| 20260906024951 | 23 | 10 | 1.6 | 3.2 | 0.00 | 0.00 | 0.00 | 92 | 1016.8 |
| 20260906024451 | 24 | 11 | 1.6 | 3.2 | 0.00 | 0.00 | 0.00 | 92 | 1016.8 |
| 20260906023921 | 24 | 10 | 1.6 | 3.2 | 0.00 | 0.00 | 0.00 | 91 | 1016.8 |
| 20260906023422 | 24 | 11 | 1.6 | 3.2 | 0.00 | 0.00 | 0.00 | 91 | 1016.8 |
| 20260906022910 | 24 | 10 | 1.6 | 4.8 | 0.00 | 0.00 | 0.00 | 90 | 1016.8 |
| 20260906022618 | 24 | 10 | 1.6 | 4.8 | 0.00 | 0.00 | 0.00 | 89 | 1016.8 |
| 20260906021858 | 25 | 11 | 1.6 | 3.2 | 0.00 | 0.00 | 0.00 | 89 | 1016.8 |
| 20260906021539 | 25 | 10 | 1.6 | 3.2 | 0.00 | 0.00 | 0.00 | 88 | 1016.8 |
| 20260906021034 | 25 | 10 | 3.2 | 3.2 | 0.00 | 0.00 | 0.00 | 88 | 1016.7 |
| 20260906020519 | 25 | 11 | 3.2 | 4.8 | 0.00 | 0.00 | 0.00 | 88 | 1016.7 |
| 20260906020019 | 25 | 11 | 4.8 | 6.4 | 0.00 | 0.00 | 0.00 | 87 | 1016.7 |
| 20260906015505 | 25 | 10 | 4.8 | 6.4 | 0.00 | 0.00 | 0.00 | 87 | 1016.6 |
| 20260906015004 | 25 | 10 | 3.2 | 8.0 | 0.00 | 0.00 | 0.00 | 88 | 1016.6 |
| 20260906014727 | 25 | 346 | 3.2 | 8.0 | 0.00 | 0.00 | 0.00 | 88 | 1016.6 |
| 20260906014002 | 25 | 23 | 1.6 | 6.4 | 0.00 | 0.00 | 0.00 | 87 | 1016.4 |
| 20260906013501 | 25 | 342 | 1.6 | 4.8 | 0.00 | 0.00 | 0.00 | 87 | 1016.4 |
| 20260906013005 | 25 | 343 | 0.0 | 3.2 | 0.00 | 0.00 | 0.00 | 87 | 1016.4 |
| 20260906012451 | 25 | 342 | 0.0 | 3.2 | 0.00 | 0.00 | 0.00 | 86 | 1016.2 |
| 20260906011949 | 25 | 342 | 0.0 | 3.2 | 0.00 | 0.00 | 0.00 | 85 | 1016.2 |
| 20260906011439 | 25 | 343 | 0.0 | 3.2 | 0.00 | 0.00 | 0.00 | 85 | 1016.2 |
| 20260906011155 | 25 | 343 | 3.2 | 3.2 | 0.00 | 0.00 | 0.00 | 85 | 1016.2 |
| 20260906010429 | 25 | 343 | 3.2 | 6.4 | 0.00 | 0.00 | 0.00 | 84 | 1016.2 |
| 20260906005929 | 26 | 342 | 1.6 | 6.4 | 0.00 | 0.00 | 0.00 | 84 | 1016.2 |
| 20260906005910 | 26 | 342 | 1.6 | 4.8 | 0.00 | 0.00 | 0.00 | 83 | 1015.9 |
| 20260906004906 | 26 | 342 | 3.2 | 4.8 | 0.00 | 0.00 | 0.00 | 83 | 1015.9 |
| 20260906004408 | 26 | 343 | 3.2 | 4.8 | 0.00 | 0.00 | 0.00 | 83 | 1015.9 |
| 20260906003901 | 26 | 342 | 0.0 | 4.8 | 0.00 | 0.00 | 0.00 | 83 | 1015.8 |
| 20260906003623 | 26 | 343 | 0.0 | 4.8 | 0.00 | 0.00 | 0.00 | 83 | 1015.8 |
| 20260906002900 | 26 | 343 | 3.2 | 6.4 | 0.00 | 0.00 | 0.00 | 83 | 1015.8 |
| 20260906002617 | 26 | 342 | 3.2 | 6.4 | 0.00 | 0.00 | 0.00 | 82 | 1015.7 |
| 20260906002341 | 26 | 342 | 3.2 | 6.4 | 0.00 | 0.00 | 0.00 | 82 | 1015.7 |
| 20260906001402 | 26 | 342 | 3.2 | 6.4 | 0.00 | 0.00 | 0.00 | 81 | 1015.7 |
| 20260906000902 | 27 | 202 | 1.6 | 6.4 | 0.00 | 0.00 | 0.00 | 78 | 1015.7 |
| 20260906000403 | 27 | 202 | 1.6 | 4.8 | 0.00 | 0.00 | 0.00 | 76 | 1015.7 |
| 20260905235841 | 27 | 202 | 0.0 | 3.2 | 0.00 | 0.00 | 0.00 | 75 | 1015.7 |
| 20260905235340 | 28 | 202 | 0.0 | 3.2 | 0.00 | 0.00 | 0.00 | 74 | 1015.7 |
| 20260905234819 | 28 | 202 | 0.0 | 3.2 | 0.00 | 0.00 | 0.00 | 73 | 1015.7 |
| 20260905234319 | 28 | 202 | 0.0 | 3.2 | 0.00 | 0.00 | 0.00 | 71 | 1015.7 |
| 20260905233814 | 29 | 202 | 1.6 | 3.2 | 0.00 | 0.00 | 0.00 | 71 | 1015.7 |
| 20260905232753 | 29 | 202 | 3.2 | 6.4 | 0.00 | 0.00 | 0.00 | 69 | 1015.7 |
| 20260905232255 | 30 | 202 | 3.2 | 8.0 | 0.00 | 0.00 | 0.00 | 68 | 1015.6 |
| 20260905231750 | 30 | 202 | 3.2 | 8.0 | 0.00 | 0.00 | 0.00 | 66 | 1015.6 |
| 20260905231246 | 30 | 209 | 3.2 | 8.0 | 0.00 | 0.00 | 0.00 | 66 | 1015.6 |
| 20260905230747 | 30 | 210 | 3.2 | 8.0 | 0.00 | 0.00 | 0.00 | 66 | 1015.7 |
| 20260905230244 | 30 | 198 | 3.2 | 8.0 | 0.00 | 0.00 | 0.00 | 65 | 1015.7 |
| 20260905225734 | 30 | 202 | 3.2 | 8.0 | 0.00 | 0.00 | 0.00 | 64 | 1015.7 |
| 20260905225458 | 30 | 204 | 3.2 | 6.4 | 0.00 | 0.00 | 0.00 | 64 | 1015.9 |
| 20260905224723 | 30 | 204 | 4.8 | 8.0 | 0.00 | 0.00 | 0.00 | 64 | 1015.9 |
| 20260905224223 | 30 | 206 | 4.8 | 8.0 | 0.00 | 0.00 | 0.00 | 66 | 1016.3 |
| 20260905223721 | 30 | 212 | 4.8 | 8.0 | 0.00 | 0.00 | 0.00 | 65 | 1016.3 |
| 20260905223221 | 30 | 196 | 4.8 | 9.7 | 0.00 | 0.00 | 0.00 | 64 | 1016.3 |
| 20260905222719 | 30 | 205 | 4.8 | 9.7 | 0.00 | 0.00 | 0.00 | 63 | 1016.3 |
| 20260905222222 | 30 | 196 | 4.8 | 9.7 | 0.00 | 0.00 | 0.00 | 63 | 1016.3 |
| 20260905221719 | 30 | 251 | 4.8 | 9.7 | 0.00 | 0.00 | 0.00 | 63 | 1016.3 |
| 20260905221453 | 30 | 255 | 4.8 | 9.7 | 0.00 | 0.00 | 0.00 | 63 | 1016.3 |
| 20260905220947 | 30 | 208 | 4.8 | 8.0 | 0.00 | 0.00 | 0.00 | 63 | 1016.3 |
| 20260905220220 | 30 | 257 | 4.8 | 8.0 | 0.00 | 0.00 | 0.00 | 64 | 1016.3 |
| 20260905215933 | 30 | 256 | 4.8 | 9.7 | 0.00 | 0.00 | 0.00 | 63 | 1016.2 |
| 20260905215204 | 30 | 228 | 4.8 | 9.7 | 0.00 | 0.00 | 0.00 | 63 | 1016.2 |
| 20260905214703 | 30 | 205 | 6.4 | 9.7 | 0.00 | 0.00 | 0.00 | 63 | 1016.2 |
| 20260905214200 | 30 | 210 | 6.4 | 11.3 | 0.00 | 0.00 | 0.00 | 64 | 1016.1 |
| 20260905213659 | 30 | 208 | 4.8 | 11.3 | 0.00 | 0.00 | 0.00 | 61 | 1016.1 |
| 20260905213200 | 30 | 213 | 4.8 | 9.7 | 0.00 | 0.00 | 0.00 | 63 | 1016.1 |
| 20260905212658 | 30 | 258 | 6.4 | 9.7 | 0.00 | 0.00 | 0.00 | 63 | 1015.9 |
| 20260905212158 | 30 | 199 | 6.4 | 11.3 | 0.00 | 0.00 | 0.00 | 63 | 1015.9 |
| 20260905211700 | 30 | 191 | 6.4 | 11.3 | 0.00 | 0.00 | 0.00 | 61 | 1015.9 |
| 20260905211419 | 30 | 208 | 6.4 | 11.3 | 0.00 | 0.00 | 0.00 | 65 | 1015.8 |
| 20260905210659 | 30 | 218 | 4.8 | 11.3 | 0.00 | 0.00 | 0.00 | 63 | 1015.8 |
| 20260905210422 | 30 | 223 | 4.8 | 8.0 | 0.00 | 0.00 | 0.00 | 62 | 1015.8 |
| 20260905205658 | 30 | 236 | 6.4 | 9.7 | 0.00 | 0.00 | 0.00 | 63 | 1016.2 |
| 20260905205158 | 30 | 249 | 6.4 | 9.7 | 0.00 | 0.00 | 0.00 | 65 | 1016.2 |
| 20260905204659 | 30 | 209 | 6.4 | 9.7 | 0.00 | 0.00 | 0.00 | 65 | 1016.2 |
| 20260905204159 | 30 | 189 | 6.4 | 11.3 | 0.00 | 0.00 | 0.00 | 66 | 1016.1 |
| 20260905203653 | 30 | 226 | 4.8 | 11.3 | 0.00 | 0.00 | 0.00 | 65 | 1016.1 |
| 20260905203153 | 30 | 194 | 4.8 | 9.7 | 0.00 | 0.00 | 0.00 | 65 | 1016.1 |
| 20260905202653 | 30 | 205 | 6.4 | 12.9 | 0.00 | 0.00 | 0.00 | 66 | 1016.2 |
| 20260905202416 | 30 | 202 | 6.4 | 14.5 | 0.00 | 0.00 | 0.00 | 68 | 1016.2 |
| 20260905201653 | 30 | 199 | 4.8 | 14.5 | 0.00 | 0.00 | 0.00 | 66 | 1016.2 |
| 20260905201153 | 29 | 173 | 4.8 | 8.0 | 0.00 | 0.00 | 0.00 | 66 | 1016.5 |
| 20260905200650 | 29 | 187 | 6.4 | 9.7 | 0.00 | 0.00 | 0.00 | 69 | 1016.5 |
| 20260905200148 | 29 | 181 | 6.4 | 9.7 | 0.00 | 0.00 | 0.00 | 68 | 1016.5 |
| 20260905195638 | 29 | 179 | 4.8 | 9.7 | 0.00 | 0.00 | 0.00 | 68 | 1016.5 |
| 20260905195138 | 29 | 199 | 4.8 | 8.0 | 0.00 | 0.00 | 0.00 | 67 | 1016.5 |
| 20260905194638 | 28 | 222 | 4.8 | 11.3 | 0.00 | 0.00 | 0.00 | 70 | 1016.5 |
| 20260905194359 | 28 | 205 | 4.8 | 11.3 | 0.00 | 0.00 | 0.00 | 67 | 1016.8 |
| 20260905193639 | 28 | 215 | 4.8 | 8.0 | 0.00 | 0.00 | 0.00 | 67 | 1016.8 |
| 20260905193138 | 27 | 73 | 3.2 | 3.2 | 0.00 | 0.00 | 0.00 | 68 | 1016.8 |
| 20260905192638 | 27 | 73 | 3.2 | 4.8 | 0.00 | 0.00 | 0.00 | 68 | 1016.9 |
| 20260905192117 | 27 | 73 | 3.2 | 4.8 | 0.00 | 0.00 | 0.00 | 68 | 1016.9 |
| 20260905191609 | 27 | 75 | 3.2 | 8.0 | 0.00 | 0.00 | 0.00 | 69 | 1016.9 |
| 20260905191109 | 27 | 84 | 3.2 | 8.0 | 0.00 | 0.00 | 0.00 | 68 | 1017.3 |
| 20260905190608 | 27 | 191 | 3.2 | 6.4 | 0.00 | 0.00 | 0.00 | 71 | 1017.3 |
| 20260905190108 | 27 | 339 | 3.2 | 8.0 | 0.00 | 0.00 | 0.00 | 71 | 1017.3 |
| 20260905185608 | 27 | 7 | 3.2 | 8.0 | 0.00 | 0.00 | 0.00 | 72 | 1017.7 |
| 20260905185108 | 26 | 1 | 3.2 | 6.4 | 0.00 | 0.00 | 0.00 | 76 | 1017.7 |
| 20260905184609 | 26 | 74 | 3.2 | 8.0 | 0.00 | 0.00 | 0.00 | 75 | 1017.7 |
| 20260905184335 | 26 | 72 | 3.2 | 8.0 | 0.00 | 0.00 | 0.00 | 77 | 1018.0 |
| 20260905183609 | 26 | 77 | 3.2 | 6.4 | 0.00 | 0.00 | 0.00 | 77 | 1018.0 |
| 20260905183108 | 25 | 205 | 3.2 | 6.4 | 0.00 | 0.00 | 0.00 | 80 | 1018.0 |
| 20260905182608 | 25 | 64 | 3.2 | 6.4 | 0.00 | 0.00 | 0.00 | 83 | 1018.5 |
| 20260905182058 | 25 | 65 | 3.2 | 6.4 | 0.00 | 0.00 | 0.00 | 84 | 1018.5 |
| 20260905181601 | 25 | 40 | 3.2 | 6.4 | 0.00 | 0.00 | 0.00 | 85 | 1018.5 |
| 20260905181058 | 24 | 70 | 3.2 | 8.0 | 0.00 | 0.00 | 0.00 | 87 | 1018.7 |
| 20260905180558 | 24 | 76 | 3.2 | 8.0 | 0.00 | 0.00 | 0.00 | 88 | 1018.7 |
| 20260905180059 | 23 | 55 | 1.6 | 8.0 | 0.00 | 0.00 | 0.00 | 88 | 1018.7 |
| 20260905175558 | 23 | 69 | 1.6 | 6.4 | 0.00 | 0.00 | 0.00 | 92 | 1019.2 |
| 20260905175058 | 23 | 76 | 3.2 | 4.8 | 0.00 | 0.00 | 0.00 | 94 | 1019.2 |
| 20260905174558 | 23 | 78 | 3.2 | 4.8 | 0.00 | 0.00 | 0.00 | 96 | 1019.2 |
| 20260905174046 | 22 | 72 | 0.0 | 4.8 | 0.00 | 0.00 | 0.00 | 97 | 1019.6 |
| 20260905173546 | 22 | 330 | 0.0 | 4.8 | 0.00 | 0.00 | 0.00 | 97 | 1019.6 |
| 20260905173044 | 22 | 10 | 3.2 | 3.2 | 0.00 | 0.00 | 0.00 | 98 | 1019.6 |
| 20260905172543 | 22 | 10 | 3.2 | 4.8 | 0.00 | 0.00 | 0.00 | 97 | 1019.7 |
| 20260905172020 | 22 | 59 | 0.0 | 4.8 | 0.00 | 0.00 | 0.00 | 98 | 1019.7 |
| 20260905171518 | 22 | 100 | 0.0 | 3.2 | 0.00 | 0.00 | 0.00 | 98 | 1019.7 |
| 20260905171240 | 22 | 9 | 1.6 | 3.2 | 0.00 | 0.00 | 0.00 | 98 | 1019.2 |
| 20260905170518 | 22 | 9 | 1.6 | 3.2 | 0.00 | 0.00 | 0.00 | 97 | 1019.2 |
| 20260905170015 | 22 | 10 | 3.2 | 3.2 | 0.00 | 0.00 | 0.00 | 97 | 1019.2 |
| 20260905165515 | 22 | 197 | 3.2 | 3.2 | 0.00 | 0.00 | 0.00 | 96 | 1019.3 |
| 20260905164935 | 22 | 197 | 3.2 | 3.2 | 0.00 | 0.00 | 0.00 | 96 | 1019.3 |
| 20260905164427 | 22 | 197 | 3.2 | 4.8 | 0.00 | 0.00 | 0.00 | 96 | 1019.3 |
| 20260905163921 | 22 | 197 | 3.2 | 4.8 | 0.00 | 0.00 | 0.00 | 96 | 1019.6 |
| 20260905163647 | 22 | 196 | 3.2 | 8.0 | 0.00 | 0.00 | 0.00 | 95 | 1019.6 |
| 20260905162915 | 22 | 197 | 3.2 | 8.0 | 0.00 | 0.00 | 0.00 | 95 | 1019.6 |
| 20260905162408 | 22 | 240 | 3.2 | 4.8 | 0.00 | 0.00 | 0.00 | 94 | 1020.0 |
| 20260905161909 | 22 | 248 | 3.2 | 4.8 | 0.00 | 0.00 | 0.00 | 93 | 1020.0 |
| 20260905161345 | 22 | 248 | 3.2 | 4.8 | 0.00 | 0.00 | 0.00 | 92 | 1020.0 |
| 20260905161054 | 23 | 219 | 3.2 | 4.8 | 0.00 | 0.00 | 0.00 | 91 | 1020.5 |
| 20260905160334 | 23 | 219 | 3.2 | 12.9 | 0.00 | 0.00 | 0.00 | 89 | 1020.5 |
| 20260905160108 | 23 | 254 | 6.4 | 12.9 | 0.00 | 0.00 | 0.00 | 87 | 1020.5 |
| 20260905155554 | 26 | 37 | 4.8 | 12.9 | 0.00 | 0.00 | 0.00 | 74 | 1020.0 |
| 20260905155048 | 26 | 37 | 4.8 | 17.7 | 0.00 | 0.00 | 0.00 | 74 | 1020.0 |
| 20260905154311 | 26 | 37 | 4.8 | 17.7 | 0.00 | 0.00 | 0.00 | 74 | 1020.0 |
| 20260905153734 | 26 | 18 | 4.8 | 14.5 | 0.00 | 0.00 | 0.00 | 74 | 1019.8 |
| 20260905153234 | 27 | 77 | 4.8 | 14.5 | 0.00 | 0.00 | 0.00 | 78 | 1019.8 |
| 20260905152957 | 27 | 169 | 0.0 | 11.3 | 0.00 | 0.00 | 0.00 | 80 | 1019.8 |
| 20260905152231 | 27 | 324 | 3.2 | 3.2 | 0.00 | 0.00 | 0.00 | 79 | 1019.1 |
| 20260905151735 | 27 | 324 | 3.2 | 4.8 | 0.00 | 0.00 | 0.00 | 79 | 1019.1 |
| 20260905151449 | 27 | 324 | 3.2 | 4.8 | 0.00 | 0.00 | 0.00 | 79 | 1019.1 |
| 20260905150725 | 27 | 190 | 3.2 | 8.0 | 0.00 | 0.00 | 0.00 | 79 | 1018.6 |
| 20260905150208 | 27 | 186 | 3.2 | 8.0 | 0.00 | 0.00 | 0.00 | 79 | 1018.6 |
| 20260905145711 | 27 | 206 | 3.2 | 6.4 | 0.00 | 0.00 | 0.00 | 79 | 1018.7 |
| 20260905145211 | 27 | 199 | 3.2 | 4.8 | 0.00 | 0.00 | 0.00 | 82 | 1018.7 |
| 20260905144921 | 26 | 201 | 3.2 | 4.8 | 0.00 | 0.00 | 0.00 | 83 | 1018.7 |
| 20260905144153 | 26 | 201 | 3.2 | 4.8 | 0.00 | 0.00 | 0.00 | 83 | 1018.5 |
| 20260905143636 | 26 | 201 | 3.2 | 6.4 | 0.00 | 0.00 | 0.00 | 83 | 1018.5 |
| 20260905143120 | 26 | 202 | 3.2 | 6.4 | 0.00 | 0.00 | 0.00 | 83 | 1018.5 |
| 20260905143101 | 26 | 203 | 3.2 | 6.4 | 0.00 | 0.00 | 0.00 | 83 | 1018.7 |
| 20260905142129 | 26 | 239 | 3.2 | 6.4 | 0.00 | 0.00 | 0.00 | 84 | 1018.7 |
| 20260905141620 | 25 | 201 | 3.2 | 6.4 | 0.00 | 0.00 | 0.00 | 86 | 1018.7 |
| 20260905141126 | 25 | 210 | 3.2 | 4.8 | 0.00 | 0.00 | 0.00 | 87 | 1018.8 |
| 20260905140626 | 25 | 255 | 1.6 | 4.8 | 0.00 | 0.00 | 0.00 | 87 | 1018.8 |
| 20260905140120 | 25 | 14 | 1.6 | 4.8 | 0.00 | 0.00 | 0.00 | 88 | 1018.8 |
| 20260905135620 | 25 | 17 | 3.2 | 8.0 | 0.00 | 0.00 | 0.00 | 89 | 1019.1 |
| 20260905135118 | 24 | 17 | 3.2 | 8.0 | 0.00 | 0.00 | 0.00 | 89 | 1019.1 |
| 20260905134841 | 24 | 5 | 3.2 | 6.4 | 0.00 | 0.00 | 0.00 | 88 | 1019.1 |
| 20260905134100 | 24 | 5 | 3.2 | 8.0 | 0.00 | 0.00 | 0.00 | 89 | 1019.0 |
| 20260905133558 | 24 | 342 | 3.2 | 6.4 | 0.00 | 0.00 | 0.00 | 91 | 1019.0 |
| 20260905133058 | 23 | 11 | 3.2 | 6.4 | 0.00 | 0.00 | 0.00 | 91 | 1019.0 |
| 20260905132553 | 23 | 4 | 3.2 | 6.4 | 0.00 | 0.00 | 0.00 | 91 | 1019.0 |
| 20260905132048 | 23 | 66 | 3.2 | 4.8 | 0.00 | 0.00 | 0.00 | 93 | 1019.0 |
| 20260905131548 | 23 | 36 | 3.2 | 6.4 | 0.00 | 0.00 | 0.00 | 92 | 1019.0 |
| 20260905131046 | 23 | 339 | 3.2 | 6.4 | 0.00 | 0.00 | 0.00 | 92 | 1019.1 |
| 20260905130546 | 23 | 69 | 3.2 | 8.0 | 0.00 | 0.00 | 0.00 | 94 | 1019.1 |
| 20260905130309 | 22 | 72 | 3.2 | 8.0 | 0.00 | 0.00 | 0.00 | 94 | 1019.1 |
| 20260905125543 | 22 | 76 | 3.2 | 6.4 | 0.00 | 0.00 | 0.00 | 95 | 1019.2 |
| 20260905125046 | 22 | 76 | 3.2 | 6.4 | 0.00 | 0.00 | 0.00 | 96 | 1019.2 |
| 20260905124539 | 22 | 11 | 3.2 | 4.8 | 0.00 | 0.00 | 0.00 | 96 | 1019.2 |
| 20260905124029 | 22 | 4 | 1.6 | 4.8 | 0.00 | 0.00 | 0.00 | 96 | 1019.2 |
| 20260905123528 | 22 | 55 | 1.6 | 4.8 | 0.00 | 0.00 | 0.00 | 97 | 1019.2 |
| 20260905123018 | 22 | 16 | 3.2 | 4.8 | 0.00 | 0.00 | 0.00 | 97 | 1019.2 |
| 20260905122456 | 21 | 16 | 3.2 | 3.2 | 0.00 | 0.00 | 0.00 | 98 | 1019.0 |
| 20260905122218 | 21 | 16 | 1.6 | 4.8 | 0.00 | 0.00 | 0.00 | 98 | 1019.0 |
| 20260905121451 | 21 | 16 | 1.6 | 4.8 | 0.00 | 0.00 | 0.00 | 98 | 1019.0 |
| 20260905120949 | 21 | 24 | 3.2 | 3.2 | 0.00 | 0.00 | 0.00 | 98 | 1018.9 |
| 20260905120448 | 21 | 24 | 3.2 | 3.2 | 0.00 | 0.00 | 0.00 | 98 | 1018.9 |
| 20260905115948 | 21 | 8 | 1.6 | 3.2 | 0.00 | 0.00 | 0.00 | 99 | 1018.9 |
| 20260905115447 | 21 | 8 | 1.6 | 4.8 | 0.00 | 0.00 | 0.00 | 99 | 1018.8 |
| 20260905114942 | 21 | 8 | 1.6 | 6.4 | 0.00 | 0.00 | 0.00 | 99 | 1018.8 |
| 20260905114709 | 21 | 8 | 1.6 | 6.4 | 0.00 | 0.00 | 0.00 | 99 | 1018.8 |
| 20260905113931 | 21 | 15 | 0.0 | 4.8 | 0.00 | 0.00 | 0.00 | 99 | 1018.6 |
| 20260905113430 | 21 | 15 | 0.0 | 4.8 | 0.00 | 0.00 | 0.00 | 98 | 1018.6 |
| 20260905112927 | 21 | 15 | 1.6 | 0.0 | 0.00 | 0.00 | 0.00 | 98 | 1018.6 |
| 20260905112637 | 21 | 15 | 1.6 | 0.0 | 0.00 | 0.00 | 0.00 | 98 | 1018.5 |
| 20260905111921 | 21 | 15 | 0.0 | 0.0 | 0.00 | 0.00 | 0.00 | 98 | 1018.5 |
| 20260905111428 | 21 | 15 | 0.0 | 3.2 | 0.00 | 0.00 | 0.00 | 98 | 1018.5 |
| 20260905110851 | 21 | 15 | 0.0 | 3.2 | 0.00 | 0.00 | 0.00 | 98 | 1018.3 |
| 20260905110623 | 21 | 15 | 0.0 | 3.2 | 0.00 | 0.00 | 0.00 | 98 | 1018.3 |
| 20260905110054 | 21 | 12 | 1.6 | 3.2 | 0.00 | 0.00 | 0.00 | 98 | 1018.3 |
| 20260905105314 | 21 | 12 | 1.6 | 3.2 | 0.00 | 0.00 | 0.00 | 98 | 1018.1 |
| 20260905104810 | 21 | 12 | 1.6 | 3.2 | 0.00 | 0.00 | 0.00 | 98 | 1018.1 |
| 20260905104258 | 21 | 12 | 1.6 | 3.2 | 0.00 | 0.00 | 0.00 | 98 | 1018.1 |
| 20260905103801 | 21 | 12 | 1.6 | 4.8 | 0.00 | 0.00 | 0.00 | 98 | 1018.1 |
| 20260905103242 | 21 | 12 | 1.6 | 4.8 | 0.00 | 0.00 | 0.00 | 98 | 1018.1 |
| 20260905103001 | 21 | 12 | 0.0 | 3.2 | 0.00 | 0.00 | 0.00 | 98 | 1018.1 |
| 20260905102242 | 21 | 12 | 0.0 | 3.2 | 0.00 | 0.00 | 0.00 | 98 | 1018.1 |
| 20260905101740 | 21 | 12 | 0.0 | 3.2 | 0.00 | 0.00 | 0.00 | 98 | 1018.1 |
| 20260905101230 | 21 | 12 | 0.0 | 0.0 | 0.00 | 0.00 | 0.00 | 97 | 1018.0 |
| 20260905101218 | 21 | 12 | 0.0 | 0.0 | 0.00 | 0.00 | 0.00 | 97 | 1018.0 |
| 20260905100213 | 21 | 12 | 0.0 | 0.0 | 0.00 | 0.00 | 0.00 | 97 | 1018.0 |
| 20260905095928 | 21 | 12 | 0.0 | 0.0 | 0.00 | 0.00 | 0.00 | 97 | 1018.0 |
| 20260905095431 | 21 | 12 | 0.0 | 0.0 | 0.00 | 0.00 | 0.00 | 97 | 1018.0 |
| 20260905094659 | 21 | 12 | 0.0 | 0.0 | 0.00 | 0.00 | 0.00 | 97 | 1018.0 |
| 20260905094139 | 21 | 12 | 0.0 | 0.0 | 0.00 | 0.00 | 0.00 | 97 | 1017.9 |
| 20260905093630 | 21 | 12 | 0.0 | 0.0 | 0.00 | 0.00 | 0.00 | 97 | 1017.9 |
| 20260905093121 | 21 | 12 | 1.6 | 1.6 | 0.00 | 0.00 | 0.00 | 97 | 1017.9 |
| 20260905092627 | 21 | 12 | 1.6 | 4.8 | 0.00 | 0.00 | 0.00 | 97 | 1017.8 |
| 20260905092123 | 21 | 12 | 1.6 | 4.8 | 0.00 | 0.00 | 0.00 | 97 | 1017.8 |
| 20260905091624 | 21 | 12 | 3.2 | 6.4 | 0.00 | 0.00 | 0.00 | 97 | 1017.8 |
| 20260905091125 | 21 | 12 | 3.2 | 6.4 | 0.00 | 0.00 | 0.00 | 97 | 1017.7 |
| 20260905090626 | 21 | 12 | 1.6 | 4.8 | 0.00 | 0.00 | 0.00 | 97 | 1017.7 |
| 20260905090107 | 21 | 12 | 3.2 | 4.8 | 0.00 | 0.00 | 0.00 | 97 | 1017.7 |
| 20260905085832 | 21 | 12 | 3.2 | 3.2 | 0.00 | 0.00 | 0.00 | 96 | 1017.8 |
| 20260905085107 | 21 | 12 | 3.2 | 4.8 | 0.00 | 0.00 | 0.00 | 97 | 1017.8 |
| 20260905084605 | 21 | 12 | 3.2 | 4.8 | 0.00 | 0.00 | 0.00 | 97 | 1017.8 |
| 20260905084103 | 21 | 44 | 3.2 | 4.8 | 0.00 | 0.00 | 0.00 | 96 | 1017.8 |
| 20260905083834 | 21 | 48 | 3.2 | 6.4 | 0.00 | 0.00 | 0.00 | 96 | 1017.8 |